This is the latest recevied weather packets stored in our database for station/object OE5ERN-10. If no packets are shown the sender has not sent any weather packets the latest 10 day(s).
| Time | Temp. | Humidity | Pressure | Rain* | Wind** | Luminosity | Snow |
|---|---|---|---|---|---|---|---|
| 1777894835 | 30.56° C | 28% | 1016.7 hPa | 0 mm | - | - | - |
| 1777893935 | 31.67° C | 28% | 1016.9 hPa | 0 mm | - | - | - |
| 1777893035 | 32.78° C | 26% | 1017.1 hPa | 0 mm | - | - | - |
| 1777892135 | 32.22° C | 28% | 1017.4 hPa | 0 mm | - | - | - |
| 1777891235 | 31.67° C | 28% | 1017.6 hPa | 0 mm | - | - | - |
| 1777890335 | 31.67° C | 27% | 1017.9 hPa | 0 mm | - | - | - |
| 1777889435 | 31.67° C | 27% | 1018 hPa | 0 mm | - | - | - |
| 1777888535 | 34.44° C | 25% | 1018.3 hPa | 0 mm | - | - | - |
| 1777887635 | 34.44° C | 26% | 1018.4 hPa | 0 mm | - | - | - |
| 1777886735 | 36.11° C | 24% | 1018.5 hPa | 0 mm | - | - | - |
| 1777885835 | 36.11° C | 24% | 1018.8 hPa | 0 mm | - | - | - |
| 1777884935 | 35° C | 25% | 1018.7 hPa | 0 mm | - | - | - |
| 1777884035 | 38.89° C | 23% | 1018.9 hPa | 0 mm | - | - | - |
| 1777883135 | 38.89° C | 23% | 1019 hPa | 0 mm | - | - | - |
| 1777882235 | 37.78° C | 23% | 1019 hPa | 0 mm | - | - | - |
| 1777881335 | 36.11° C | 25% | 1019.1 hPa | 0 mm | - | - | - |
| 1777880435 | 35.56° C | 26% | 1018.8 hPa | 0 mm | - | - | - |
| 1777879535 | 32.78° C | 28% | 1018.9 hPa | 0 mm | - | - | - |
| 1777878635 | 31.67° C | 29% | 1018.9 hPa | 0 mm | - | - | - |
| 1777877735 | 28.89° C | 34% | 1018.8 hPa | 0 mm | - | - | - |
| 1777876835 | 27.22° C | 36% | 1018.8 hPa | 0 mm | - | - | - |
| 1777875935 | 27.78° C | 35% | 1018.7 hPa | 0 mm | - | - | - |
| 1777875035 | 26.67° C | 39% | 1018.7 hPa | 0 mm | - | - | - |
| 1777874135 | 24.44° C | 45% | 1018.5 hPa | 0 mm | - | - | - |
| 1777873235 | 21.11° C | 53% | 1018.5 hPa | 0 mm | - | - | - |
* Rain latest hour (hover to see other rain measurements)
** Current wind speed in m/s (hover to see current wind gust speed)